This demonstration page uses our WeatherBlox Daily Observations layout. Learn more.

41.55636, -103.73856

Hourly Observations for May 28, 2016

Temp ( °F °C ) Dew Point ( °F °C ) Humidity (%) Winds ( mph kmh ) Pressure ( in mb ) Visibility ( mi km ) Precip ( " mm )
12:53 am 00:53 Clear 44 6.7 41 5 89 89 ESE 3 6 29.86 1011 10 16.0934 0 0
1:53 am 01:53 Clear 44 6.7 41 5 89 89 Calm 29.86 1011 10 16.0934 0 0
2:08 am 02:08 Partly Cloudy with Mist and Fog 43 6 39 4 87 87 Calm 29.94 1014 1.75 2.816345 0 0
2:10 am 02:10 Mostly Cloudy with Mist and Fog 43 6 39 4 87 87 Calm 29.94 1014 0.75 1.207005 0 0
2:33 am 02:33 Partly Cloudy with Mist and Fog 40 4.4 39 3.9 97 97 NW 5 7 29.97 1015 1.25 2.011675 0 0
2:37 am 02:37 Mostly Clear with Mist and Fog 40 4.4 38 3.3 93 93 NNW 5 7 29.97 1015 4 6.43736 0 0
2:53 am 02:53 Partly Cloudy 40 4.4 38 3.3 93 93 NNE 5 7 29.87 1012 10 16.0934 0 0
3:53 am 03:53 Clear 41 5 39 3.9 93 93 N 6 9 29.87 1012 10 16.0934 0 0
4:53 am 04:53 Clear 38 3.3 36 2.2 93 93 NW 3 6 29.88 1012 9 14.48406 0 0
5:53 am 05:53 Sunny with Mist and Fog 41 5 39 3.9 93 93 NW 8 13 29.89 1012 6 9.65604 0 0
6:53 am 06:53 Sunny 45 7.2 42 5.6 90 90 WNW 5 7 29.89 1012 10 16.0934 0 0
7:53 am 07:53 Sunny 52 11.1 44 6.7 75 75 WNW 9 15 29.89 1012 10 16.0934 0 0
8:53 am 08:53 Sunny 58 14.4 45 7.2 62 62 W 8 13 29.9 1013 10 16.0934 0 0
9:53 am 09:53 Sunny 63 17.2 46 7.8 54 54 WNW 9 15 29.89 1012 10 16.0934 0 0
10:53 am 10:53 Sunny 69 20.6 44 6.7 41 41 W 7 11 29.88 1012 10 16.0934 0 0
11:53 am 11:53 Sunny 70 21.1 43 6.1 38 38 VRB 3 6 29.88 1012 10 16.0934 0 0
12:53 pm 12:53 Sunny 73 22.8 44 6.7 35 35 W 9 15 29.86 1011 10 16.0934 0 0
1:53 pm 13:53 Mostly Sunny 73 22.8 40 4.4 30 30 VRB 3 6 29.85 1011 10 16.0934 0 0
2:53 pm 14:53 Sunny 75 24 43 6 31 31 SW 7 11 29.68 1005 10 16.0934 0 0
3:53 pm 15:53 Mostly Sunny 74 23.3 40 4.4 29 29 SW 9 15 29.84 1010 10 16.0934 0 0
4:30 pm 16:30 Partly Cloudy with Nearby Thunderstorms 73 23 45 7 36 36 NNW 8 13 29.71 1006 10 16.0934 0 0
4:53 pm 16:53 Mostly Cloudy 77 25 43 6.1 30 30 NNW 13 20 29.86 1011 10 16.0934 0 0.0254
5:53 pm 17:53 Partly Cloudy 75 23.9 43 6.1 32 32 N 12 19 29.88 1012 10 16.0934 0 0
6:53 pm 18:53 Sunny 69 20.6 45 7.2 42 42 E 16 26 29.91 1013 10 16.0934 0 0
7:53 pm 19:53 Sunny 65 18.3 47 8.3 52 52 ESE 9 15 29.94 1014 10 16.0934 0 0
8:53 pm 20:53 Clear 58 14.4 47 8.3 67 67 NE 8 13 29.97 1015 10 16.0934 0 0
9:53 pm 21:53 Clear 57 13.9 47 8.3 69 69 ENE 7 11 29.98 1015 10 16.0934 0 0
10:53 pm 22:53 Clear 54 12.2 46 7.8 75 75 ESE 6 9 29.99 1016 10 16.0934 0 0
11:53 pm 23:53 Clear 51 10.6 45 7.2 80 80 E 7 11 30.01 1016 10 16.0934 0 0

Powered by AerisWeather